Location: Bluff Heights
(33.7692°N, 118.1592°W)
Time: 10:42:42
(UTC+00:00)

Tiros 1 - Pass Details

Date: 31 July 2021
Orbit: 630 x 663 km, 48.4° (Epoch: 22 September)

Event Time Altitude Azimuth Distance (km) Brightness Sun altitude
Rises 02:59:29 0° 263° (W) 2,979 11.8 -1.8°
Reaches altitude 10° 03:02:08 10° 276° (W) 2,064 11.3 -2.3°
Maximum altitude 03:06:12 27° 334° (NNW) 1,241 9.3 -3.1°
Drops below altitude 10° 03:10:15 10° 33° (NNE) 2,052 9.7 -3.9°
Sets 03:12:53 0° 46° (NE) 2,958 10.3 -4.4°
